Find Beidou DW 30

NORAD ID: 43245 Int'l Des: 2018-029 Owner: CNSA Country: CN Constellation: BeiDou operational
MEOCIRCULAR

Current View

Loading 3D Globe...

About Beidou DW 30

Description loading...

Upcoming Passes

Passes for default location (London). Set your location on the main map for personalized predictions.

Altitude History

Loading altitude history...

Two-Line Element Set

1 43245U 18029A 26148.08114591 -.00000099 00000-0 00000+0 0 9996
2 43245 54.2123 300.6512 0000889 125.9008 234.0779 1.86228477 55528
Epoch: May 28, 2026 • Age: 47 hours

Current Status

Altitude 21544.1 km
Velocity 3.78 km/s
Sub-Earth Point -42.96°S, 101.31°W
Launch Date Mar 29, 2018
Age 8.1 years
Type navigation

Launch Group

Unknown Vehicle • BeiDou Launch 28 • 2 satellites

Technical Details

Classification Payload
Mass 1014.00 kg
Dry Mass 850.00 kg
Total Mass 1014.00 kg
Length 2.20 m
Diameter 1.70 m
Span 10.00 m
Shape Box + 2 Pan
Manufacturer SECM
Bus Type BD-3M2
Phase Status In Orbit
Owner/State CNSA/CN

Most Searched